User: anonymous   Login
Location: Young's Pond
(41.2695°N, 72.7766°W)
Time: 13:49:53
(UTC-04:00)
Language:

CZ-4B R/B - Orbit

View from above orbital plane
View from above orbital plane
View from above satellite
View from above satellite

Ground track
Ground track

The orbit data is extracted from the following two-line orbital elements,

1 29093U 06015B   17111.85588564 +.00007028 +00000-0 +16889-3 0  9997
2 29093 097.4890 221.4464 0065387 159.0218 201.3733 15.39410372608761
Epoch (UTC): 21 April 2017 20:32:28
Eccentricity: 0.0065387
inclination: 97.4890°
perigee height: 403 km
apogee height: 492 km
right ascension of ascending node: 221.4464°
argument of perigee: 159.0218°
revolutions per day: 15.39410372
mean anomaly at epoch: 201.3733°
orbit number at epoch: 60876

The dashed part of the orbit path shows where the satellite is in the earth's shadow,  

DLR